Year,Month,Day,Hour,Minute,Value (Times are PST for windspeed in km/hr)
2017,05,06,00,00,0.00
2017,05,06,00,01,1.30
2017,05,06,00,02,3.90
2017,05,06,00,03,0.00
2017,05,06,00,04,0.00
2017,05,06,00,05,0.00
2017,05,06,00,06,0.00
2017,05,06,00,07,0.00
2017,05,06,00,08,0.10
2017,05,06,00,09,0.00
2017,05,06,00,10,0.00
2017,05,06,00,11,0.00
2017,05,06,00,12,1.00
2017,05,06,00,13,7.80
2017,05,06,00,14,2.40
2017,05,06,00,15,1.60
2017,05,06,00,16,3.60
2017,05,06,00,17,7.60
2017,05,06,00,18,2.50
2017,05,06,00,19,9.70
2017,05,06,00,20,6.00
2017,05,06,00,21,1.40
2017,05,06,00,22,1.50
2017,05,06,00,23,5.30
2017,05,06,00,24,1.30
2017,05,06,00,25,0.00
2017,05,06,00,26,0.00
2017,05,06,00,27,0.00
2017,05,06,00,28,0.20
2017,05,06,00,29,0.00
2017,05,06,00,30,0.30
2017,05,06,00,31,0.00
2017,05,06,00,32,0.00
2017,05,06,00,33,6.60
2017,05,06,00,34,3.00
2017,05,06,00,35,7.10
2017,05,06,00,36,6.40
2017,05,06,00,37,6.10
2017,05,06,00,38,4.50
2017,05,06,00,39,3.30
2017,05,06,00,40,8.80
2017,05,06,00,41,8.20
2017,05,06,00,42,8.20
2017,05,06,00,43,16.30
2017,05,06,00,44,11.10
2017,05,06,00,45,7.70
2017,05,06,00,46,12.60
2017,05,06,00,47,11.00
2017,05,06,00,48,5.60
2017,05,06,00,49,3.10
2017,05,06,00,50,0.90
2017,05,06,00,51,5.00
2017,05,06,00,52,3.70
2017,05,06,00,53,0.00
2017,05,06,00,54,0.10
2017,05,06,00,55,1.70
2017,05,06,00,56,0.00
2017,05,06,00,57,0.10
2017,05,06,00,58,0.00
2017,05,06,00,59,3.70
2017,05,06,01,00,6.40
2017,05,06,01,01,1.00
2017,05,06,01,02,3.50
2017,05,06,01,03,1.50
2017,05,06,01,04,7.40
2017,05,06,01,05,5.00
2017,05,06,01,06,2.70
2017,05,06,01,07,3.40
2017,05,06,01,08,1.90
2017,05,06,01,09,4.30
2017,05,06,01,10,3.30
2017,05,06,01,11,0.10
2017,05,06,01,12,0.00
2017,05,06,01,13,0.00
2017,05,06,01,14,0.00
2017,05,06,01,15,2.20
2017,05,06,01,16,6.40
2017,05,06,01,17,4.50
2017,05,06,01,18,0.80
2017,05,06,01,19,0.10
2017,05,06,01,20,3.30
2017,05,06,01,21,1.90
2017,05,06,01,22,8.80
2017,05,06,01,23,2.70
2017,05,06,01,24,1.30
2017,05,06,01,25,4.10
2017,05,06,01,26,1.50
2017,05,06,01,27,5.10
2017,05,06,01,28,1.60
2017,05,06,01,29,1.40
2017,05,06,01,30,3.70
2017,05,06,01,31,4.30
2017,05,06,01,32,7.00
2017,05,06,01,33,10.90
2017,05,06,01,34,7.10
2017,05,06,01,35,4.30
2017,05,06,01,36,0.20
2017,05,06,01,37,0.10
2017,05,06,01,38,2.10
2017,05,06,01,39,0.20
2017,05,06,01,40,1.70
2017,05,06,01,41,5.70
2017,05,06,01,42,5.30
2017,05,06,01,43,6.00
2017,05,06,01,44,4.70
2017,05,06,01,45,4.30
2017,05,06,01,46,4.10
2017,05,06,01,47,0.70
2017,05,06,01,48,0.20
2017,05,06,01,49,1.70
2017,05,06,01,50,0.00
2017,05,06,01,51,0.00
2017,05,06,01,52,0.00
2017,05,06,01,53,0.20
2017,05,06,01,54,7.90
2017,05,06,01,55,3.40
2017,05,06,01,56,4.40
2017,05,06,01,57,1.70
2017,05,06,01,58,0.00
2017,05,06,01,59,0.00
2017,05,06,02,00,0.00
2017,05,06,02,01,0.00
2017,05,06,02,02,0.00
2017,05,06,02,03,0.00
2017,05,06,02,04,0.00
2017,05,06,02,05,0.00
2017,05,06,02,06,0.00
2017,05,06,02,07,0.00
2017,05,06,02,08,0.00
2017,05,06,02,09,0.10
2017,05,06,02,10,0.00
2017,05,06,02,11,0.00
2017,05,06,02,12,0.00
2017,05,06,02,13,0.00
2017,05,06,02,14,0.00
2017,05,06,02,15,1.60
2017,05,06,02,16,2.60
2017,05,06,02,17,0.90
2017,05,06,02,18,0.00
2017,05,06,02,19,0.00
2017,05,06,02,20,0.00
2017,05,06,02,21,0.00
2017,05,06,02,22,0.00
2017,05,06,02,23,0.00
2017,05,06,02,24,0.00
2017,05,06,02,25,0.00
2017,05,06,02,26,0.00
2017,05,06,02,27,0.00
2017,05,06,02,28,0.00
2017,05,06,02,29,0.00
2017,05,06,02,30,0.10
2017,05,06,02,31,0.00
2017,05,06,02,32,0.00
2017,05,06,02,33,0.00
2017,05,06,02,34,0.00
2017,05,06,02,35,0.00
2017,05,06,02,36,0.00
2017,05,06,02,37,0.00
2017,05,06,02,38,0.00
2017,05,06,02,39,0.00
2017,05,06,02,40,0.00
2017,05,06,02,41,0.00
2017,05,06,02,42,0.10
2017,05,06,02,43,0.00
2017,05,06,02,44,0.00
2017,05,06,02,45,0.00
2017,05,06,02,46,0.00
2017,05,06,02,47,0.00
2017,05,06,02,48,0.00
2017,05,06,02,49,0.00
2017,05,06,02,50,0.00
2017,05,06,02,51,0.00
2017,05,06,02,52,0.00
2017,05,06,02,53,0.00
2017,05,06,02,54,0.00
2017,05,06,02,55,0.00
2017,05,06,02,56,0.00
2017,05,06,02,57,0.00
2017,05,06,02,58,0.00
2017,05,06,02,59,0.00
2017,05,06,03,00,0.00
2017,05,06,03,01,0.00
2017,05,06,03,02,0.00
2017,05,06,03,03,0.00
2017,05,06,03,04,0.00
2017,05,06,03,05,0.00
2017,05,06,03,06,0.00
2017,05,06,03,07,0.00
2017,05,06,03,08,0.00
2017,05,06,03,09,0.00
2017,05,06,03,10,0.00
2017,05,06,03,11,0.00
2017,05,06,03,12,0.00
2017,05,06,03,13,0.00
2017,05,06,03,14,0.00
2017,05,06,03,15,0.00
2017,05,06,03,16,0.00
2017,05,06,03,17,0.00
2017,05,06,03,18,0.00
2017,05,06,03,19,0.00
2017,05,06,03,20,0.00
2017,05,06,03,21,0.00
2017,05,06,03,22,0.00
2017,05,06,03,23,0.00
2017,05,06,03,24,0.00
2017,05,06,03,25,0.00
2017,05,06,03,26,0.00
2017,05,06,03,27,0.00
2017,05,06,03,28,0.00
2017,05,06,03,29,0.00
2017,05,06,03,30,0.00
2017,05,06,03,31,0.00
2017,05,06,03,32,0.00
2017,05,06,03,33,0.00
2017,05,06,03,34,0.00
2017,05,06,03,35,0.00
2017,05,06,03,36,0.00
2017,05,06,03,37,0.00
2017,05,06,03,38,0.00
2017,05,06,03,39,0.00
2017,05,06,03,40,0.00
2017,05,06,03,41,0.00
2017,05,06,03,42,0.00
2017,05,06,03,43,0.00
2017,05,06,03,44,0.00
2017,05,06,03,45,0.00
2017,05,06,03,46,0.00
2017,05,06,03,47,0.00
2017,05,06,03,48,0.00
2017,05,06,03,49,0.00
2017,05,06,03,50,0.00
2017,05,06,03,51,0.00
2017,05,06,03,52,0.00
2017,05,06,03,53,0.00
2017,05,06,03,54,0.20
2017,05,06,03,55,0.00
2017,05,06,03,56,0.00
2017,05,06,03,57,0.00
2017,05,06,03,58,0.00
2017,05,06,03,59,0.00
2017,05,06,04,00,0.00
2017,05,06,04,01,0.00
2017,05,06,04,02,0.00
2017,05,06,04,03,0.00
2017,05,06,04,04,0.00
2017,05,06,04,05,0.00
2017,05,06,04,06,0.00
2017,05,06,04,07,0.00
2017,05,06,04,08,0.00
2017,05,06,04,09,0.00
2017,05,06,04,10,0.00
2017,05,06,04,11,0.00
2017,05,06,04,12,0.00
2017,05,06,04,13,0.00
2017,05,06,04,14,0.00
2017,05,06,04,15,0.00
2017,05,06,04,16,0.00
2017,05,06,04,17,0.00
2017,05,06,04,18,0.00
2017,05,06,04,19,0.00
2017,05,06,04,20,0.00
2017,05,06,04,21,0.00
2017,05,06,04,22,0.00
2017,05,06,04,23,0.00
2017,05,06,04,24,0.00
2017,05,06,04,25,0.00
2017,05,06,04,26,0.00
2017,05,06,04,27,0.00
2017,05,06,04,28,0.00
2017,05,06,04,29,0.00
2017,05,06,04,30,0.00
2017,05,06,04,31,0.00
2017,05,06,04,32,0.00
2017,05,06,04,33,0.00
2017,05,06,04,34,0.00
2017,05,06,04,35,0.00
2017,05,06,04,36,0.00
2017,05,06,04,37,0.00
2017,05,06,04,38,0.00
2017,05,06,04,39,0.00
2017,05,06,04,40,0.00
2017,05,06,04,41,0.00
2017,05,06,04,42,0.00
2017,05,06,04,43,0.00
2017,05,06,04,44,0.00
2017,05,06,04,45,0.00
2017,05,06,04,46,0.00
2017,05,06,04,47,0.00
2017,05,06,04,48,0.00
2017,05,06,04,49,0.00
2017,05,06,04,50,0.00
2017,05,06,04,51,0.00
2017,05,06,04,52,0.00
2017,05,06,04,53,0.00
2017,05,06,04,54,0.00
2017,05,06,04,55,0.00
2017,05,06,04,56,0.00
2017,05,06,04,57,0.00
2017,05,06,04,58,0.00
2017,05,06,04,59,0.00
2017,05,06,05,00,0.00
2017,05,06,05,01,0.00
2017,05,06,05,02,0.00
2017,05,06,05,03,0.00
2017,05,06,05,04,0.00
2017,05,06,05,05,0.00
2017,05,06,05,06,0.00
2017,05,06,05,07,0.00
2017,05,06,05,08,0.00
2017,05,06,05,09,0.00
2017,05,06,05,10,0.00
2017,05,06,05,11,0.00
2017,05,06,05,12,0.00
2017,05,06,05,13,0.00
2017,05,06,05,14,0.00
2017,05,06,05,15,0.00
2017,05,06,05,16,1.40
2017,05,06,05,17,1.60
2017,05,06,05,18,0.00
2017,05,06,05,19,0.10
2017,05,06,05,20,0.00
2017,05,06,05,21,0.00
2017,05,06,05,22,0.20
2017,05,06,05,23,0.00
2017,05,06,05,24,0.00
2017,05,06,05,25,0.00
2017,05,06,05,26,0.00
2017,05,06,05,27,0.00
2017,05,06,05,28,0.00
2017,05,06,05,29,0.00
2017,05,06,05,30,0.00
2017,05,06,05,31,0.00
2017,05,06,05,32,0.00
2017,05,06,05,33,0.00
2017,05,06,05,34,0.00
2017,05,06,05,35,0.00
2017,05,06,05,36,0.00
2017,05,06,05,37,0.00
2017,05,06,05,38,0.00
2017,05,06,05,39,0.00
2017,05,06,05,40,0.00
2017,05,06,05,41,0.00
2017,05,06,05,42,0.00
2017,05,06,05,43,0.00
2017,05,06,05,44,0.00
2017,05,06,05,45,0.00
2017,05,06,05,46,0.00
2017,05,06,05,47,0.00
2017,05,06,05,48,0.00
2017,05,06,05,49,0.00
2017,05,06,05,50,0.00
2017,05,06,05,51,0.00
2017,05,06,05,52,0.00
2017,05,06,05,53,0.00
2017,05,06,05,54,0.00
2017,05,06,05,55,0.10
2017,05,06,05,56,0.00
2017,05,06,05,57,0.00
2017,05,06,05,58,1.30
2017,05,06,05,59,3.00
2017,05,06,06,00,0.20
2017,05,06,06,01,0.00
2017,05,06,06,02,0.20
2017,05,06,06,03,0.20
2017,05,06,06,04,0.00
2017,05,06,06,05,0.00
2017,05,06,06,06,0.00
2017,05,06,06,07,0.00
2017,05,06,06,08,0.00
2017,05,06,06,09,0.00
2017,05,06,06,10,0.00
2017,05,06,06,11,0.00
2017,05,06,06,12,0.00
2017,05,06,06,13,0.00
2017,05,06,06,14,0.00
2017,05,06,06,15,0.00
2017,05,06,06,16,0.00
2017,05,06,06,17,0.00
2017,05,06,06,18,0.00
2017,05,06,06,19,0.00
2017,05,06,06,20,0.00
2017,05,06,06,21,0.00
2017,05,06,06,22,0.00
2017,05,06,06,23,0.00
2017,05,06,06,24,0.00
2017,05,06,06,25,0.10
2017,05,06,06,26,0.00
2017,05,06,06,27,0.00
2017,05,06,06,28,0.00
2017,05,06,06,29,0.00
2017,05,06,06,30,0.00
2017,05,06,06,31,0.00
2017,05,06,06,32,0.00
2017,05,06,06,33,0.00
2017,05,06,06,34,0.00
2017,05,06,06,35,0.00
2017,05,06,06,36,0.00
2017,05,06,06,37,0.00
2017,05,06,06,38,0.00
2017,05,06,06,39,0.00
2017,05,06,06,40,0.00
2017,05,06,06,41,0.00
2017,05,06,06,42,0.00
2017,05,06,06,43,0.00
2017,05,06,06,44,0.00
2017,05,06,06,45,0.00
2017,05,06,06,46,0.00
2017,05,06,06,47,0.00
2017,05,06,06,48,0.00
2017,05,06,06,49,0.00
2017,05,06,06,50,0.00
2017,05,06,06,51,0.00
2017,05,06,06,52,0.00
2017,05,06,06,53,0.00
2017,05,06,06,54,0.00
2017,05,06,06,55,0.00
2017,05,06,06,56,0.00
2017,05,06,06,57,0.00
2017,05,06,06,58,0.00
2017,05,06,06,59,0.00
2017,05,06,07,00,0.00
2017,05,06,07,01,0.00
2017,05,06,07,02,0.00
2017,05,06,07,03,0.00
2017,05,06,07,04,0.00
2017,05,06,07,05,0.00
2017,05,06,07,06,0.00
2017,05,06,07,07,0.00
2017,05,06,07,08,0.00
2017,05,06,07,09,0.00
2017,05,06,07,10,0.00
2017,05,06,07,11,0.00
2017,05,06,07,12,0.00
2017,05,06,07,13,0.00
2017,05,06,07,14,0.00
2017,05,06,07,15,0.00
2017,05,06,07,16,0.00
2017,05,06,07,17,0.00
2017,05,06,07,18,0.10
2017,05,06,07,19,0.00
2017,05,06,07,20,0.00
2017,05,06,07,21,0.00
2017,05,06,07,22,0.00
2017,05,06,07,23,0.00
2017,05,06,07,24,0.00
2017,05,06,07,25,0.10
2017,05,06,07,26,0.00
2017,05,06,07,27,0.00
2017,05,06,07,28,0.00
2017,05,06,07,29,0.10
2017,05,06,07,30,0.00
2017,05,06,07,31,0.00
2017,05,06,07,32,0.00
2017,05,06,07,33,0.00
2017,05,06,07,34,0.00
2017,05,06,07,35,0.00
2017,05,06,07,36,0.00
2017,05,06,07,37,0.00
2017,05,06,07,38,0.00
2017,05,06,07,39,0.00
2017,05,06,07,40,0.00
2017,05,06,07,41,0.00
2017,05,06,07,42,0.00
2017,05,06,07,43,0.00
2017,05,06,07,44,0.00
2017,05,06,07,45,0.00
2017,05,06,07,46,0.00
2017,05,06,07,47,2.70
2017,05,06,07,48,0.00
2017,05,06,07,49,0.00
2017,05,06,07,50,0.00
2017,05,06,07,51,0.00
2017,05,06,07,52,0.10
2017,05,06,07,53,0.00
2017,05,06,07,54,0.00
2017,05,06,07,55,0.50
2017,05,06,07,56,0.10
2017,05,06,07,57,0.00
2017,05,06,07,58,3.00
2017,05,06,07,59,0.00
2017,05,06,08,00,0.00
2017,05,06,08,01,0.70
2017,05,06,08,02,0.00
2017,05,06,08,03,0.00
2017,05,06,08,04,0.10
2017,05,06,08,05,0.00
2017,05,06,08,06,0.00
2017,05,06,08,07,0.10
2017,05,06,08,08,0.10
2017,05,06,08,09,0.00
2017,05,06,08,10,0.00
2017,05,06,08,11,0.00
2017,05,06,08,12,0.00
2017,05,06,08,13,0.20
2017,05,06,08,14,1.10
2017,05,06,08,15,0.00
2017,05,06,08,16,0.00
2017,05,06,08,17,0.00
2017,05,06,08,18,0.50
2017,05,06,08,19,0.00
2017,05,06,08,20,0.20
2017,05,06,08,21,0.40
2017,05,06,08,22,5.20
2017,05,06,08,23,0.00
2017,05,06,08,24,0.00
2017,05,06,08,25,0.00
2017,05,06,08,26,0.00
2017,05,06,08,27,0.00
2017,05,06,08,28,0.00
2017,05,06,08,29,0.00
2017,05,06,08,30,0.10
2017,05,06,08,31,0.00
2017,05,06,08,32,0.00
2017,05,06,08,33,0.00
2017,05,06,08,34,0.00
2017,05,06,08,35,0.00
2017,05,06,08,36,0.00
2017,05,06,08,37,0.00
2017,05,06,08,38,0.20
2017,05,06,08,39,0.00
2017,05,06,08,40,0.00
2017,05,06,08,41,0.00
2017,05,06,08,42,0.00
2017,05,06,08,43,0.00
2017,05,06,08,44,0.10
2017,05,06,08,45,0.60
2017,05,06,08,46,1.30
2017,05,06,08,47,1.40
2017,05,06,08,48,3.00
2017,05,06,08,49,0.60
2017,05,06,08,50,0.00
2017,05,06,08,51,0.00
2017,05,06,08,52,0.00
2017,05,06,08,53,0.00
2017,05,06,08,54,0.00
2017,05,06,08,55,0.00
2017,05,06,08,56,0.00
2017,05,06,08,57,6.70
2017,05,06,08,58,3.80
2017,05,06,08,59,1.40
2017,05,06,09,00,7.80
2017,05,06,09,01,5.10
2017,05,06,09,02,5.70
2017,05,06,09,03,3.60
2017,05,06,09,04,0.20
2017,05,06,09,05,2.60
2017,05,06,09,06,2.90
2017,05,06,09,07,0.10
2017,05,06,09,08,0.00
2017,05,06,09,09,0.30
2017,05,06,09,10,0.00
2017,05,06,09,11,4.30
2017,05,06,09,12,5.40
2017,05,06,09,13,4.90
2017,05,06,09,14,5.20
2017,05,06,09,15,4.50
2017,05,06,09,16,5.40
2017,05,06,09,17,4.70
2017,05,06,09,18,0.50
2017,05,06,09,19,0.00
2017,05,06,09,20,1.30
2017,05,06,09,21,0.40
2017,05,06,09,22,2.40
2017,05,06,09,23,0.10
2017,05,06,09,24,4.20
2017,05,06,09,25,0.10
2017,05,06,09,26,0.60
2017,05,06,09,27,3.00
2017,05,06,09,28,2.20
2017,05,06,09,29,5.40
2017,05,06,09,30,2.30
2017,05,06,09,31,1.00
2017,05,06,09,32,0.60
2017,05,06,09,33,3.50
2017,05,06,09,34,6.70
2017,05,06,09,35,1.80
2017,05,06,09,36,4.40
2017,05,06,09,37,6.90
2017,05,06,09,38,11.20
2017,05,06,09,39,10.60
2017,05,06,09,40,11.40
2017,05,06,09,41,4.80
2017,05,06,09,42,0.10
2017,05,06,09,43,2.30
2017,05,06,09,44,0.70
2017,05,06,09,45,0.00
2017,05,06,09,46,0.00
2017,05,06,09,47,4.70
2017,05,06,09,48,2.40
2017,05,06,09,49,5.10
2017,05,06,09,50,3.80
2017,05,06,09,51,6.80
2017,05,06,09,52,7.20
2017,05,06,09,53,12.90
2017,05,06,09,54,13.20
2017,05,06,09,55,13.40
2017,05,06,09,56,8.80
2017,05,06,09,57,13.50
2017,05,06,09,58,2.30
2017,05,06,09,59,6.40
2017,05,06,10,00,7.10
2017,05,06,10,01,7.20
2017,05,06,10,02,11.30
2017,05,06,10,03,4.80
2017,05,06,10,04,9.50
2017,05,06,10,05,12.60
2017,05,06,10,06,13.00
2017,05,06,10,07,10.50
2017,05,06,10,08,3.80
2017,05,06,10,09,7.20
2017,05,06,10,10,3.10
2017,05,06,10,11,8.80
2017,05,06,10,12,10.10
2017,05,06,10,13,9.50
2017,05,06,10,14,12.40
2017,05,06,10,15,10.20
2017,05,06,10,16,12.10
2017,05,06,10,17,4.10
2017,05,06,10,18,9.50
2017,05,06,10,19,8.40
2017,05,06,10,20,12.10
2017,05,06,10,21,8.10
2017,05,06,10,22,14.30
2017,05,06,10,23,10.70
2017,05,06,10,24,4.20
2017,05,06,10,25,1.40
2017,05,06,10,26,6.80
2017,05,06,10,27,0.30
2017,05,06,10,28,8.70
2017,05,06,10,29,8.00
2017,05,06,10,30,6.50
2017,05,06,10,31,2.80
2017,05,06,10,32,7.20
2017,05,06,10,33,1.80
2017,05,06,10,34,3.50
2017,05,06,10,35,11.90
2017,05,06,10,36,13.60
2017,05,06,10,37,13.70
2017,05,06,10,38,7.60
2017,05,06,10,39,9.60
2017,05,06,10,40,10.40
2017,05,06,10,41,17.20
2017,05,06,10,42,14.10
2017,05,06,10,43,8.20
2017,05,06,10,44,14.10
2017,05,06,10,45,13.80
2017,05,06,10,46,10.00
2017,05,06,10,47,6.90
2017,05,06,10,48,5.10
2017,05,06,10,49,2.30
2017,05,06,10,50,3.50
2017,05,06,10,51,2.90
2017,05,06,10,52,1.60
2017,05,06,10,53,3.20
2017,05,06,10,54,1.40
2017,05,06,10,55,3.20
2017,05,06,10,56,5.70
2017,05,06,10,57,13.20
2017,05,06,10,58,14.60
2017,05,06,10,59,20.80
2017,05,06,11,00,6.50
2017,05,06,11,01,10.20
2017,05,06,11,02,8.20
2017,05,06,11,03,8.20
2017,05,06,11,04,11.00
2017,05,06,11,05,11.30
2017,05,06,11,06,9.10
2017,05,06,11,07,17.70
2017,05,06,11,08,13.60
2017,05,06,11,09,10.20
2017,05,06,11,10,17.10
2017,05,06,11,11,14.10
2017,05,06,11,12,4.00
2017,05,06,11,13,4.80
2017,05,06,11,14,3.60
2017,05,06,11,15,12.60
2017,05,06,11,16,14.70
2017,05,06,11,17,13.90
2017,05,06,11,18,10.10
2017,05,06,11,19,14.60
2017,05,06,11,20,11.10
2017,05,06,11,21,1.60
2017,05,06,11,22,1.30
2017,05,06,11,23,10.00
2017,05,06,11,24,10.90
2017,05,06,11,25,12.00
2017,05,06,11,26,13.30
2017,05,06,11,27,16.30
2017,05,06,11,28,11.80
2017,05,06,11,29,20.00
2017,05,06,11,30,17.30
2017,05,06,11,31,20.60
2017,05,06,11,32,16.60
2017,05,06,11,33,20.80
2017,05,06,11,34,16.70
2017,05,06,11,35,13.50
2017,05,06,11,36,9.30
2017,05,06,11,37,11.40
2017,05,06,11,38,12.00
2017,05,06,11,39,13.10
2017,05,06,11,40,14.20
2017,05,06,11,41,20.00
2017,05,06,11,42,13.90
2017,05,06,11,43,10.20
2017,05,06,11,44,12.50
2017,05,06,11,45,7.50
2017,05,06,11,46,9.70
2017,05,06,11,47,9.80
2017,05,06,11,48,17.50
2017,05,06,11,49,9.20
2017,05,06,11,50,12.20
2017,05,06,11,51,17.70
2017,05,06,11,52,12.30
2017,05,06,11,53,15.40
2017,05,06,11,54,17.40
2017,05,06,11,55,10.10
2017,05,06,11,56,6.70
2017,05,06,11,57,11.50
2017,05,06,11,58,10.10
2017,05,06,11,59,19.20
2017,05,06,12,00,11.20
2017,05,06,12,01,16.30
2017,05,06,12,02,17.00
2017,05,06,12,03,12.20
2017,05,06,12,04,14.20
2017,05,06,12,05,11.90
2017,05,06,12,06,18.80
2017,05,06,12,07,17.30
2017,05,06,12,08,3.80
2017,05,06,12,09,15.40
2017,05,06,12,10,9.40
2017,05,06,12,11,10.20
2017,05,06,12,12,8.90
2017,05,06,12,13,16.90
2017,05,06,12,14,9.00
2017,05,06,12,15,1.70
2017,05,06,12,16,15.80
2017,05,06,12,17,14.20
2017,05,06,12,18,8.80
2017,05,06,12,19,5.80
2017,05,06,12,20,4.70
2017,05,06,12,21,3.60
2017,05,06,12,22,7.90
2017,05,06,12,23,8.90
2017,05,06,12,24,12.80
2017,05,06,12,25,9.00
2017,05,06,12,26,10.30
2017,05,06,12,27,6.80
2017,05,06,12,28,8.60
2017,05,06,12,29,8.70
2017,05,06,12,30,17.60
2017,05,06,12,31,11.20
2017,05,06,12,32,13.20
2017,05,06,12,33,6.70
2017,05,06,12,34,8.80
2017,05,06,12,35,12.60
2017,05,06,12,36,11.50
2017,05,06,12,37,8.50
2017,05,06,12,38,0.90
2017,05,06,12,39,6.90
2017,05,06,12,40,8.90
2017,05,06,12,41,5.80
2017,05,06,12,42,0.20
2017,05,06,12,43,0.90
2017,05,06,12,44,0.20
2017,05,06,12,45,9.70
2017,05,06,12,46,14.30
2017,05,06,12,47,11.10
2017,05,06,12,48,15.60
2017,05,06,12,49,7.10
2017,05,06,12,50,16.90
2017,05,06,12,51,15.70
2017,05,06,12,52,13.00
2017,05,06,12,53,18.60
2017,05,06,12,54,16.40
2017,05,06,12,55,18.90
2017,05,06,12,56,18.60
2017,05,06,12,57,23.20
2017,05,06,12,58,14.20
2017,05,06,12,59,13.50
2017,05,06,13,00,10.60
2017,05,06,13,01,20.10
2017,05,06,13,02,20.10
2017,05,06,13,03,18.80
2017,05,06,13,04,14.30
2017,05,06,13,05,8.40
2017,05,06,13,06,6.10
2017,05,06,13,07,11.80
2017,05,06,13,08,4.10
2017,05,06,13,09,1.20
2017,05,06,13,10,9.00
2017,05,06,13,11,11.80
2017,05,06,13,12,10.50
2017,05,06,13,13,6.80
2017,05,06,13,14,6.80
2017,05,06,13,15,3.10
2017,05,06,13,16,0.10
2017,05,06,13,17,1.90
2017,05,06,13,18,2.00
2017,05,06,13,19,0.20
2017,05,06,13,20,2.90
2017,05,06,13,21,0.90
2017,05,06,13,22,7.30
2017,05,06,13,23,13.10
2017,05,06,13,24,9.10
2017,05,06,13,25,6.20
2017,05,06,13,26,8.50
2017,05,06,13,27,15.60
2017,05,06,13,28,8.80
2017,05,06,13,29,3.50
2017,05,06,13,30,4.70
2017,05,06,13,31,9.40
2017,05,06,13,32,7.50
2017,05,06,13,33,8.40
2017,05,06,13,34,11.30
2017,05,06,13,35,12.80
2017,05,06,13,36,3.00
2017,05,06,13,37,2.10
2017,05,06,13,38,3.20
2017,05,06,13,39,2.90
2017,05,06,13,40,14.40
2017,05,06,13,41,4.00
2017,05,06,13,42,3.70
2017,05,06,13,43,6.40
2017,05,06,13,44,12.30
2017,05,06,13,45,13.30
2017,05,06,13,46,15.90
2017,05,06,13,47,8.80
2017,05,06,13,48,8.40
2017,05,06,13,49,8.40
2017,05,06,13,50,11.90
2017,05,06,13,51,8.70
2017,05,06,13,52,8.90
2017,05,06,13,53,9.10
2017,05,06,13,54,14.60
2017,05,06,13,55,20.40
2017,05,06,13,56,15.80
2017,05,06,13,57,16.60
2017,05,06,13,58,2.90
2017,05,06,13,59,6.00
2017,05,06,14,00,7.70
2017,05,06,14,01,5.00
2017,05,06,14,02,12.00
2017,05,06,14,03,14.40
2017,05,06,14,04,8.00
2017,05,06,14,05,10.70
2017,05,06,14,06,10.70
2017,05,06,14,07,16.50
2017,05,06,14,08,7.40
2017,05,06,14,09,11.20
2017,05,06,14,10,3.60
2017,05,06,14,11,3.70
2017,05,06,14,12,11.70
2017,05,06,14,13,7.10
2017,05,06,14,14,12.80
2017,05,06,14,15,15.40
2017,05,06,14,16,8.10
2017,05,06,14,17,6.60
2017,05,06,14,18,13.00
2017,05,06,14,19,14.60
2017,05,06,14,20,17.00
2017,05,06,14,21,13.70
2017,05,06,14,22,6.80
2017,05,06,14,23,4.70
2017,05,06,14,24,13.50
2017,05,06,14,25,1.90
2017,05,06,14,26,8.60
2017,05,06,14,27,9.50
2017,05,06,14,28,2.30
2017,05,06,14,29,9.10
2017,05,06,14,30,9.00
2017,05,06,14,31,13.80
2017,05,06,14,32,13.40
2017,05,06,14,33,6.00
2017,05,06,14,34,7.20
2017,05,06,14,35,4.50
2017,05,06,14,36,10.10
2017,05,06,14,37,5.90
2017,05,06,14,38,4.50
2017,05,06,14,39,0.50
2017,05,06,14,40,5.70
2017,05,06,14,41,12.10
2017,05,06,14,42,4.30
2017,05,06,14,43,2.30
2017,05,06,14,44,6.90
2017,05,06,14,45,13.30
2017,05,06,14,46,12.50
2017,05,06,14,47,11.20
2017,05,06,14,48,9.30
2017,05,06,14,49,9.30
2017,05,06,14,50,2.80
2017,05,06,14,51,18.20
2017,05,06,14,52,21.60
2017,05,06,14,53,12.60
2017,05,06,14,54,13.00
2017,05,06,14,55,17.80
2017,05,06,14,56,13.40
2017,05,06,14,57,21.50
2017,05,06,14,58,13.30
2017,05,06,14,59,9.60
2017,05,06,15,00,8.10
2017,05,06,15,01,6.80
2017,05,06,15,02,11.70
2017,05,06,15,03,9.50
2017,05,06,15,04,4.10
2017,05,06,15,05,6.20
2017,05,06,15,06,13.20
2017,05,06,15,07,14.50
2017,05,06,15,08,16.80
2017,05,06,15,09,14.50
2017,05,06,15,10,8.20
2017,05,06,15,11,8.40
2017,05,06,15,12,7.20
2017,05,06,15,13,15.40
2017,05,06,15,14,13.80
2017,05,06,15,15,12.50
2017,05,06,15,16,5.40
2017,05,06,15,17,9.60
2017,05,06,15,18,10.60
2017,05,06,15,19,9.30
2017,05,06,15,20,11.80
2017,05,06,15,21,12.20
2017,05,06,15,22,10.60
2017,05,06,15,23,15.60
2017,05,06,15,24,10.30
2017,05,06,15,25,14.50
2017,05,06,15,26,13.00
2017,05,06,15,27,13.50
2017,05,06,15,28,16.90
2017,05,06,15,29,17.80
2017,05,06,15,30,13.70
2017,05,06,15,31,14.70
2017,05,06,15,32,15.80
2017,05,06,15,33,7.00
2017,05,06,15,34,4.70
2017,05,06,15,35,11.90
2017,05,06,15,36,7.90
2017,05,06,15,37,4.10
2017,05,06,15,38,7.70
2017,05,06,15,39,12.20
2017,05,06,15,40,11.10
2017,05,06,15,41,10.50
2017,05,06,15,42,8.90
2017,05,06,15,43,7.50
2017,05,06,15,44,10.30
2017,05,06,15,45,11.00
2017,05,06,15,46,8.60
2017,05,06,15,47,6.00
2017,05,06,15,48,3.80
2017,05,06,15,49,1.80
2017,05,06,15,50,4.40
2017,05,06,15,51,4.20
2017,05,06,15,52,4.20
2017,05,06,15,53,2.70
2017,05,06,15,54,3.10
2017,05,06,15,55,2.00
2017,05,06,15,56,0.30
2017,05,06,15,57,1.80
2017,05,06,15,58,0.50
2017,05,06,15,59,2.20
2017,05,06,16,00,1.90
2017,05,06,16,01,4.00
2017,05,06,16,02,3.60
2017,05,06,16,03,2.30
2017,05,06,16,04,5.10
2017,05,06,16,05,5.40
2017,05,06,16,06,1.00
2017,05,06,16,07,5.40
2017,05,06,16,08,4.60
2017,05,06,16,09,1.20
2017,05,06,16,10,0.10
2017,05,06,16,11,0.10
2017,05,06,16,12,0.00
2017,05,06,16,13,0.00
2017,05,06,16,14,0.00
2017,05,06,16,15,0.00
2017,05,06,16,16,0.00
2017,05,06,16,17,0.00
2017,05,06,16,18,0.00
2017,05,06,16,19,0.10
2017,05,06,16,20,0.00
2017,05,06,16,21,0.20
2017,05,06,16,22,0.20
2017,05,06,16,23,0.00
2017,05,06,16,24,0.00
2017,05,06,16,25,0.00
2017,05,06,16,26,0.00
2017,05,06,16,27,0.00
2017,05,06,16,28,0.10
2017,05,06,16,29,0.00
2017,05,06,16,30,0.00
2017,05,06,16,31,3.10
2017,05,06,16,32,2.30
2017,05,06,16,33,0.00
2017,05,06,16,34,0.00
2017,05,06,16,35,0.00
2017,05,06,16,36,0.00
2017,05,06,16,37,1.30
2017,05,06,16,38,0.70
2017,05,06,16,39,0.00
2017,05,06,16,40,0.00
2017,05,06,16,41,2.00
2017,05,06,16,42,1.80
2017,05,06,16,43,4.70
2017,05,06,16,44,8.50
2017,05,06,16,45,5.50
2017,05,06,16,46,12.10
2017,05,06,16,47,11.80
2017,05,06,16,48,7.10
2017,05,06,16,49,5.80
2017,05,06,16,50,7.80
2017,05,06,16,51,2.40
2017,05,06,16,52,0.00
2017,05,06,16,53,0.20
2017,05,06,16,54,0.60
2017,05,06,16,55,0.00
2017,05,06,16,56,0.00
2017,05,06,16,57,0.00
2017,05,06,16,58,0.40
2017,05,06,16,59,0.20
2017,05,06,17,00,0.00
2017,05,06,17,01,0.00
2017,05,06,17,02,1.30
2017,05,06,17,03,0.60
2017,05,06,17,04,0.00
2017,05,06,17,05,0.00
2017,05,06,17,06,0.00
2017,05,06,17,07,0.00
2017,05,06,17,08,0.00
2017,05,06,17,09,0.00
2017,05,06,17,10,0.00
2017,05,06,17,11,0.00
2017,05,06,17,12,3.70
2017,05,06,17,13,1.80
2017,05,06,17,14,1.40
2017,05,06,17,15,3.20
2017,05,06,17,16,2.30
2017,05,06,17,17,3.10
2017,05,06,17,18,2.30
2017,05,06,17,19,1.70
2017,05,06,17,20,2.20
2017,05,06,17,21,1.50
2017,05,06,17,22,0.90
2017,05,06,17,23,0.00
2017,05,06,17,24,0.00
2017,05,06,17,25,7.20
2017,05,06,17,26,9.00
2017,05,06,17,27,8.50
2017,05,06,17,28,12.70
2017,05,06,17,29,7.10
2017,05,06,17,30,8.20
2017,05,06,17,31,7.60
2017,05,06,17,32,6.10
2017,05,06,17,33,7.20
2017,05,06,17,34,14.10
2017,05,06,17,35,10.40
2017,05,06,17,36,11.50
2017,05,06,17,37,14.20
2017,05,06,17,38,10.90
2017,05,06,17,39,12.00
2017,05,06,17,40,10.50
2017,05,06,17,41,12.20
2017,05,06,17,42,12.10
2017,05,06,17,43,11.40
2017,05,06,17,44,6.80
2017,05,06,17,45,10.00
2017,05,06,17,46,5.60
2017,05,06,17,47,3.90
2017,05,06,17,48,4.70
2017,05,06,17,49,3.50
2017,05,06,17,50,3.50
2017,05,06,17,51,0.30
2017,05,06,17,52,2.60
2017,05,06,17,53,4.10
2017,05,06,17,54,5.40
2017,05,06,17,55,7.60
2017,05,06,17,56,3.60
2017,05,06,17,57,6.20